Regional Weather Roundup
Issued by NWS

Home | Current Version | Previous Version | Graphics & Text | Print | Product List | Glossary On
Versions: 1 2 3 4 5 6 7 8 9 10 11 12 13 14 15 16 17 18 19 20 21 22 23 24 25 26 27 28 29 30 31 32 33 34 35 36 37 38 39 40 41 42 43 44 45 46 47 48 49 50
053
ASUS43 KOAX 010802
RWRNE

WEATHER ROUNDUP FOR NEBRASKA
NATIONAL WEATHER SERVICE OMAHA NE
300 AM CDT SUN MAY 01 2016

NOTES: SATELLITE DATA IS BEING USED TO AUGMENT CLOUD COVER ABOVE
       12000 FEET.
       "FAIR" INDICATES FEW OR NO CLOUDS BELOW 12,000 FEET WITH NO
       SIGNIFICANT WEATHER AND/OR OBSTRUCTIONS TO VISIBILITY.

  * THESE STATIONS DO NOT REPORT WEATHER SUCH AS RAIN...SNOW OR FOG.

NEZ001>004-019>022-054>056-010900-
NEBRASKA PANHANDLE

CITY           SKY/WX    TMP DP  RH WIND       PRES   REMARKS
SCOTTSBLUFF    CLOUDY    37  34  89 NW7       30.22S WCI  32
ALLIANCE       FLURRIES  33  32  96 N13       30.18S WCI  24
CHADRON        PTCLDY    39  34  82 W3        30.22R
KIMBALL        LGT SNOW  33  33 100 N15       30.19S WCI  23
SIDNEY         LGT SNOW  33  32  96 N20       30.16R FOG     WCI  21
$$

NEZ057>060-069>072-079>082-010900-
SOUTHWEST NEBRASKA

CITY           SKY/WX    TMP DP  RH WIND       PRES   REMARKS
NORTH PLATTE   CLOUDY    34  33  96 N15       30.06R WCI  24
IMPERIAL       MIX PCPN  34  33  96 N20       30.08S FOG     WCI  23
LEXINGTON      LGT RAIN  39  37  89 N18       30.00R WCI  30
MCCOOK         CLOUDY    37  34  89 N18       30.01R WCI  27
$$

NEZ005>010-023>029-035>040-094-010900-
NORTH CENTRAL NEBRASKA

CITY           SKY/WX    TMP DP  RH WIND       PRES   REMARKS
VALENTINE      CLOUDY    40  37  89 N10       30.15S WCI  33
AINSWORTH      LGT RAIN  40  39  97 N10       30.12R WCI  33
BROKEN BOW     LGT RAIN  39  37  92 N17G24    30.02R WCI  30
ORD            LGT RAIN  41  38  89 NE20      30.00R
$$

NEZ041-046>049-061>064-073>077-083>087-010900-
SOUTH CENTRAL NEBRASKA

CITY           SKY/WX    TMP DP  RH WIND       PRES   REMARKS
GRAND ISLAND   LGT RAIN  42  41  96 N20G28    29.94S FOG
AURORA         CLOUDY    44  44  99 NE17G24   29.92R
HASTINGS       LGT RAIN  43  41  93 N17       29.92R
KEARNEY *      CLOUDY    41  39  93 N16       29.96R
YORK           CLOUDY    45  45 100 NE17      29.90S
$$

NEZ011>018-030>034-042>045-010900-
NORTHEAST NEBRASKA

CITY           SKY/WX    TMP DP  RH WIND       PRES   REMARKS
NORFOLK        LGT RAIN  42  39  89 NE14      29.99R
ALBION         LGT RAIN  41  39  94 NE16G24   29.99S
BLAIR          CLOUDY    45  44  96 NE15      29.92S FOG
COLUMBUS *     CLOUDY    43  36  75 NE15G25   29.95S
FREMONT        CLOUDY    44  44  99 NE7       29.94R
TEKAMAH        LGT RAIN  45  43  93 NE17      29.96R
$$

NEZ050>053-065>068-078-088>093-010900-
SOUTHEAST NEBRASKA

CITY           SKY/WX    TMP DP  RH WIND       PRES   REMARKS
LINCOLN        CLOUDY    49  46  90 NE16      29.90R
OMAHA EPPLEY   LGT RAIN  47  44  90 NE9       29.92S
FALLS CITY     CLOUDY    51  48  89 W5        29.87S
NEBRASKA CITY  CLOUDY    51  51 100 NE7       29.88S FOG
$$

NEZ044-045-051>053-067-010900-
OMAHA AREA

CITY           SKY/WX    TMP DP  RH WIND       PRES   REMARKS
OMAHA EPPLEY   LGT RAIN  47  44  90 NE9       29.92S
BLAIR          CLOUDY    45  44  96 NE15      29.92S FOG
FREMONT        CLOUDY    44  44  99 NE7       29.94R
OFFUTT AFB     CLOUDY    47  47  99 NE9       29.90S
WAHOO          CLOUDY    45  44  95 NE17      29.91S
$$




USA.gov is the U.S. government's official web portal to all federal, state and local government web resources and services.